Flag for Lesotho Weather past 2 weeks in Maseru, Lesotho

Now
50 °F

Passing clouds.


Feels Like: 48 °F
Forecast: 34 / 59 °F
Wind: 5 mph from Northeast

Location: Bloemfontein Airport

Current Time: Jul 28, 2015 at 10:33:02 AM

Latest Report: Jul 28, 2015 at 10:00 AM


Visibility: N/A

Pressure: 30.27 "Hg (25.10 "Hg at 1551m altitude)

Humidity: 47%

Dew point: 30 °F

Location of MaseruLocation

Historic Weather in Maseru — Graph

°F

Maseru temperature yesterday

Maximum temperature yesterday: 61 °F (at 2:00 PM)
Minimum temperature yesterday: 28 °F (at 6:00 AM)
Average temperature yesterday: 43 °F

Past Weeks' High & Low Weather Summary

 TemperatureHumidityPressure
High73 °F (Jul 20, 3:00 PM)100% (Jul 24, 1:01 AM)30.42 "Hg (Jul 24, 1:01 AM)
Low27 °F (Jul 18, 4:00 AM)13% (Jul 19, 2:00 PM)29.83 "Hg (Jul 16, 4:00 PM)
Average47 °F59%30.21 "Hg
* Reported Jul 13 9:00 AM — Jul 28 9:00 AM, Maseru, Weather by CustomWeather, © 2015

Note: Actual official high and low records may vary slightly from our data, if they occured in-between our weather recording intervals... More about our weather records

Advertising

Maseru weather history for previous 24 hours

 ConditionsComfort  
Time TempWeatherWind HumidityBarometerVisibility
9:00 AM
Tue, Jul 28
41 °FSunny.2 mph66%30.27 "Hg10 mi
8:00 AM32 °FSunny.2 mph87%30.24 "Hg10 mi
7:00 AM28 °FSunny.1 mph86%30.24 "Hg10 mi
6:00 AM32 °FPassing clouds.3 mph80%30.24 "HgN/A
5:00 AM30 °FChilly.No wind86%30.24 "HgN/A
4:00 AM30 °FChilly.No wind86%30.24 "HgN/A
3:00 AM30 °FChilly.2 mph86%30.21 "HgN/A
2:00 AM32 °FChilly.No wind93%30.24 "HgN/A
1:00 AM34 °FChilly.No wind81%30.24 "HgN/A
12:00 AM34 °FChilly.2 mph87%30.24 "HgN/A
11:00 PM
Mon, Jul 27
36 °FChilly.No wind81%30.27 "HgN/A
10:00 PM41 °FQuite cool.3 mph70%30.24 "HgN/A
9:00 PM39 °FChilly.6 mph70%30.24 "HgN/A
8:00 PM43 °FClear.3 mph57%30.24 "Hg10 mi
7:00 PM50 °FClear.1 mph40%30.21 "Hg10 mi
6:00 PM54 °FClear.5 mph33%30.21 "Hg10 mi
5:00 PM59 °FClear.7 mph25%30.21 "Hg10 mi
4:00 PM61 °FPassing clouds.12 mph25%30.21 "HgN/A
3:00 PM61 °FSunny.13 mph27%30.21 "Hg10 mi
2:00 PM61 °FSunny.8 mph29%30.27 "Hg10 mi
1:00 PM59 °FPassing clouds.12 mph31%30.27 "HgN/A
12:00 PM57 °FPassing clouds.12 mph36%30.30 "HgN/A
11:00 AM54 °FSunny.6 mph44%30.36 "Hg10 mi
10:00 AM45 °FPassing clouds.3 mph61%30.36 "HgN/A
Weather by CustomWeather, © 2015

See weather overviewHow to use our weather pages